Flag for Namibia Weather past 2 weeks in Walvis Bay, Namibia

Now
72 °F

Sunny.


Feels Like: 74 °F
Forecast: 63 / 76 °F
Wind: 3 mph from West

Location: Windhoek

Current Time: Jul 5, 2015 at 5:06:01 PM

Latest Report: Jul 5, 2015 at 4:00 PM


Visibility: 10 mi

Pressure: 30.24 "Hg

Humidity: 19%

Dew point: 27 °F

Location of Walvis BayLocation

Historic Weather in Walvis Bay — Graph

°F

Walvis Bay temperature yesterday

Maximum temperature yesterday: 73 °F (at 12:00 PM)
Minimum temperature yesterday: 46 °F (at 7:00 AM)
Average temperature yesterday: 60 °F

Past Weeks' High & Low Weather Summary

 TemperatureHumidityPressure
High81 °F (Jun 25, 11:00 AM)81% (Jun 26, 7:00 AM)30.45 "Hg (Jun 26, 7:00 AM)
Low34 °F (Jun 27, 4:00 AM)4% (Jun 28, 2:00 PM)30.15 "Hg (Jun 26, 1:00 PM)
Average56 °F29%30.31 "Hg
* Reported Jun 20 3:00 PM — Jul 5 3:00 PM, Walvis Bay, Weather by CustomWeather, © 2015

Note: Actual official high and low records may vary slightly from our data, if they occured in-between our weather recording intervals... More about our weather records

Advertising

Walvis Bay weather history for previous 24 hours

 ConditionsComfort  
Time TempWeatherWind HumidityBarometerVisibility
3:00 PM
Sun, Jul 5
72 °FSunny.No wind17%30.24 "Hg10 mi
2:00 PM70 °FSunny.3 mph18%30.24 "Hg10 mi
1:00 PM68 °FSunny.5 mph23%30.27 "Hg10 mi
12:00 PM66 °FSunny.5 mph24%30.30 "Hg10 mi
11:00 AM64 °FSunny.6 mph30%30.33 "Hg10 mi
10:00 AM61 °FSunny.6 mph34%30.33 "Hg10 mi
9:00 AM61 °FSunny.No wind34%30.33 "Hg10 mi
8:00 AM54 °FSunny.3 mph44%30.33 "Hg10 mi
7:00 AM46 °FSunny.5 mph53%30.33 "Hg10 mi
6:00 AM46 °FCool.6 mph53%30.30 "HgN/A
5:00 AM48 °FCool.5 mph50%30.30 "HgN/A
4:00 AM45 °FQuite cool.8 mph49%30.30 "HgN/A
3:00 AM46 °FCool.7 mph43%30.30 "HgN/A
2:00 AM48 °FCool.8 mph40%30.30 "HgN/A
1:00 AM48 °FCool.9 mph40%30.33 "HgN/A
12:00 AM50 °FCool.6 mph37%30.33 "HgN/A
11:00 PM
Sat, Jul 4
54 °FCool.3 mph30%30.36 "HgN/A
10:00 PM57 °FRefreshingly cool.3 mph27%30.33 "HgN/A
9:00 PM55 °FRefreshingly cool.8 mph28%30.36 "HgN/A
8:00 PM57 °FRefreshingly cool.8 mph27%30.33 "HgN/A
7:00 PM59 °FClear.6 mph25%30.33 "Hg10 mi
6:00 PM63 °FClear.5 mph22%30.30 "Hg10 mi
5:00 PM68 °FClear.3 mph17%30.27 "Hg10 mi
Weather by CustomWeather, © 2015

See weather overviewHow to use our weather pages